Regional Weather Roundup
Issued by NWS

Home | Current Version | Previous Version | Text Only | Print | Product List | Glossary Off
Versions: 1 2 3 4 5 6 7 8 9 10 11 12 13 14 15 16 17 18 19 20 21 22 23 24 25 26 27 28 29 30 31 32 33 34 35 36 37 38 39 40 41 42 43 44 45 46 47 48 49 50

000
ASUS45 KSLC 212010
RWRUT

UTAH REGIONAL WEATHER ROUNDUP
NATIONAL WEATHER SERVICE SALT LAKE CITY UT
200 PM MDT SUN SEP 21 2014

UTZ001>011-023>025-212100-

NORTHERN UTAH

CITY           SKY/WX    TMP DP  RH WIND       PRES   REMARKS
HILL AFB       CLOUDY    62  52  69 E9        30.20F
LOGAN          CLOUDY    67  51  56 S8        30.18F
OGDEN          CLOUDY    66  52  60 SE6       30.18F
PROVO AIRPORT  CLOUDY    64  59  82 S9        30.23R
SALT LAKE CITY LGT RAIN  65  57  75 W10       30.17F
VERNAL         PTSUNNY   63  55  75 N9        30.25F
WENDOVER       CLOUDY    66  50  55 E6        30.15F
HEBER CITY     LGT RAIN  55  52  88 CALM      30.26F
WEST JORDAN    CLOUDY    64  57  77 S14       30.20F

$$

UTZ012>022-026-027-212100-

SOUTHERN UTAH

CITY           SKY/WX    TMP DP  RH WIND       PRES   REMARKS
BRYCE CANYON   CLOUDY    58  53  84 NE9       30.35F
CEDAR CITY     PTSUNNY   66  55  67 NW3       30.21F
MILFORD        CLOUDY    66  57  72 NE5       30.19F
MOAB/CYNLANDS  TSTM      64  62  93 NW13      30.14R
PRICE          LGT RAIN  59  56  89 VRB3      30.29R
ST GEORGE      CLOUDY    81  59  47 NE12      30.07F
KANAB            N/A     72  57  60 NW6       30.21F

$$

REGIONAL REPORTS     COLORADO/ARIZONA

CITY           SKY/WX    TMP DP  RH WIND       PRES   REMARKS
CRAIG, CO      LGT RAIN  61  55  81 W7        30.37F
GRAND JUNCTION SUNNY     77  55  46 E10       30.18F
RIFLE          PTSUNNY   69  52  54 N5        30.28F
MONTROSE       PTSUNNY   77  52  41 SE7       30.25F
CORTEZ         MOSUNNY   80  50  34 SE15G23   30.25F
PAGE, AZ       SUNNY     79  55  43 N9        30.14F
GRAND CANYON   PTSUNNY   73  53  49 SW13      30.27F
KINGMAN        MOSUNNY   89  42  19 SW18G26   30.05F
FLAGSTAFF      PTSUNNY   70  51  51 SW17      30.31F

$$

REGIONAL REPORTS    NEVADA/IDAHO/WYOMING

CITY           SKY/WX    TMP DP  RH WIND       PRES   REMARKS
LAS VEGAS, NV  MOSUNNY   87  57  35 VRB6      29.95F
ELY            SUNNY     69  51  52 CALM      30.22F
ELKO           CLOUDY    64  52  64 NE6       30.17F
POCATELLO, ID  SUNNY     78  42  27 VRB3      30.14F
BURLEY         CLOUDY    70  48  45 CALM      30.12F
EVANSTON, WY   LGT RAIN  53  50  89 SE6       30.33F
ROCK SPRINGS   PTSUNNY   65  40  39 SE14      30.32F

$$


USA.gov is the U.S. government's official web portal to all federal, state and local government web resources and services.